����������;��������(kWh)
2016-09-26 00:00;84
2016-09-26 00:15;87
2016-09-26 00:30;84,85
2016-09-26 00:45;81,3
2016-09-26 01:00;82,2
2016-09-26 01:15;81,3
2016-09-26 01:30;83,1
2016-09-26 01:45;80
2016-09-26 02:00;79,2
2016-09-26 02:15;83,05
2016-09-26 02:30;80,35
2016-09-26 02:45;78,85
2016-09-26 03:00;79,45
2016-09-26 03:15;84,15
2016-09-26 03:30;77,15
2016-09-26 03:45;77,25
2016-09-26 04:00;79,85
2016-09-26 04:15;77,9
2016-09-26 04:30;76,8
2016-09-26 04:45;78,55
2016-09-26 05:00;80,5
2016-09-26 05:15;81,2
2016-09-26 05:30;82,05
2016-09-26 05:45;81,5
2016-09-26 06:00;85,85
2016-09-26 06:15;83,8
2016-09-26 06:30;83,5
2016-09-26 06:45;87,65
2016-09-26 07:00;86,1
2016-09-26 07:15;89,3
2016-09-26 07:30;88,4
2016-09-26 07:45;142,85
2016-09-26 08:00;110,55
2016-09-26 08:15;112,7
2016-09-26 08:30;106,45
2016-09-26 08:45;117
2016-09-26 09:00;122,2
2016-09-26 09:15;135,6
2016-09-26 09:30;141,85
2016-09-26 09:45;144,2
2016-09-26 10:00;142,25
2016-09-26 10:15;141,1
2016-09-26 10:30;137,95
2016-09-26 10:45;144,55
2016-09-26 11:00;198,75
2016-09-26 11:15;208,15
2016-09-26 11:30;188,3
2016-09-26 11:45;177,6
2016-09-26 12:00;183,75
2016-09-26 12:15;193,5
2016-09-26 12:30;193,3
2016-09-26 12:45;199,8
2016-09-26 13:00;193,2
2016-09-26 13:15;183,1
2016-09-26 13:30;193,05
2016-09-26 13:45;196,3
2016-09-26 14:00;191,75
2016-09-26 14:15;180,7
2016-09-26 14:30;192,15
2016-09-26 14:45;191,45
2016-09-26 15:00;181,4
2016-09-26 15:15;180,15
2016-09-26 15:30;164,6
2016-09-26 15:45;172,5
2016-09-26 16:00;164,25
2016-09-26 16:15;157,7
2016-09-26 16:30;146,45
2016-09-26 16:45;150,3
2016-09-26 17:00;142,8
2016-09-26 17:15;139,15
2016-09-26 17:30;134,15
2016-09-26 17:45;134,7
2016-09-26 18:00;124,95
2016-09-26 18:15;128
2016-09-26 18:30;128,75
2016-09-26 18:45;128,2
2016-09-26 19:00;127,05
2016-09-26 19:15;121,3
2016-09-26 19:30;125,95
2016-09-26 19:45;132,35
2016-09-26 20:00;128,8
2016-09-26 20:15;128,75
2016-09-26 20:30;120,35
2016-09-26 20:45;115,05
2016-09-26 21:00;108,75
2016-09-26 21:15;110,1
2016-09-26 21:30;108,2
2016-09-26 21:45;105,2
2016-09-26 22:00;101,4
2016-09-26 22:15;99,2
2016-09-26 22:30;95,9
2016-09-26 22:45;95,7
2016-09-26 23:00;93,9
2016-09-26 23:15;91,2
2016-09-26 23:30;89,15
2016-09-26 23:45;88,05
2016-09-27 00:00;89,55
2016-09-27 00:15;95,85
2016-09-27 00:30;96,6
2016-09-27 00:45;95,1
2016-09-27 01:00;91,8
2016-09-27 01:15;88,9
2016-09-27 01:30;85,95
2016-09-27 01:45;82,15
2016-09-27 02:00;81,35
2016-09-27 02:15;82
2016-09-27 02:30;78,25
2016-09-27 02:45;78,55
2016-09-27 03:00;78,85
2016-09-27 03:15;78,45
2016-09-27 03:30;77,95
2016-09-27 03:45;77,75
2016-09-27 04:00;78
2016-09-27 04:15;77,15
2016-09-27 04:30;76,2
2016-09-27 04:45;76,3
2016-09-27 05:00;79,05
2016-09-27 05:15;77,55
2016-09-27 05:30;79,4
2016-09-27 05:45;85,1
2016-09-27 06:00;87,3
2016-09-27 06:15;90
2016-09-27 06:30;88,6
2016-09-27 06:45;87,9
2016-09-27 07:00;89,85
2016-09-27 07:15;94,45
2016-09-27 07:30;89,95
2016-09-27 07:45;134,55
2016-09-27 08:00;108,55
2016-09-27 08:15;111,55
2016-09-27 08:30;112,25
2016-09-27 08:45;121,05
2016-09-27 09:00;126,9
2016-09-27 09:15;127,85
2016-09-27 09:30;130,9
2016-09-27 09:45;172,75
2016-09-27 10:00;186,6
2016-09-27 10:15;151
2016-09-27 10:30;161,9
2016-09-27 10:45;168,7
2016-09-27 11:00;165,6
2016-09-27 11:15;163,4
2016-09-27 11:30;179,35
2016-09-27 11:45;183,85
2016-09-27 12:00;196
2016-09-27 12:15;201,7
2016-09-27 12:30;191,75
2016-09-27 12:45;188,9
2016-09-27 13:00;192,95
2016-09-27 13:15;193,1
2016-09-27 13:30;182,75
2016-09-27 13:45;187,1
2016-09-27 14:00;194,15
2016-09-27 14:15;197,3
2016-09-27 14:30;184,75
2016-09-27 14:45;175,45
2016-09-27 15:00;184,5
2016-09-27 15:15;182,6
2016-09-27 15:30;173,25
2016-09-27 15:45;168,1
2016-09-27 16:00;156,35
2016-09-27 16:15;163,65
2016-09-27 16:30;165,05
2016-09-27 16:45;147
2016-09-27 17:00;143,5
2016-09-27 17:15;134,25
2016-09-27 17:30;138,6
2016-09-27 17:45;128,7
2016-09-27 18:00;127,9
2016-09-27 18:15;135,55
2016-09-27 18:30;132,6
2016-09-27 18:45;129,2
2016-09-27 19:00;124,55
2016-09-27 19:15;116,4
2016-09-27 19:30;121,35
2016-09-27 19:45;117,5
2016-09-27 20:00;113,3
2016-09-27 20:15;112,2
2016-09-27 20:30;111,3
2016-09-27 20:45;101,95
2016-09-27 21:00;104,35
2016-09-27 21:15;106,85
2016-09-27 21:30;100,75
2016-09-27 21:45;99,65
2016-09-27 22:00;94,45
2016-09-27 22:15;96,45
2016-09-27 22:30;91,75
2016-09-27 22:45;90,2
2016-09-27 23:00;97,1
2016-09-27 23:15;96,9
2016-09-27 23:30;94,35
2016-09-27 23:45;89,75
2016-09-28 00:00;82,5
2016-09-28 00:15;83,55
2016-09-28 00:30;82,15
2016-09-28 00:45;82,85
2016-09-28 01:00;83,35
2016-09-28 01:15;82,35
2016-09-28 01:30;81,15
2016-09-28 01:45;83,45
2016-09-28 02:00;80,3
2016-09-28 02:15;80,05
2016-09-28 02:30;77,65
2016-09-28 02:45;79,2
2016-09-28 03:00;77,35
2016-09-28 03:15;78,85
2016-09-28 03:30;79,7
2016-09-28 03:45;79,15
2016-09-28 04:00;77,35
2016-09-28 04:15;78,55
2016-09-28 04:30;77,15
2016-09-28 04:45;77,2
2016-09-28 05:00;78,65
2016-09-28 05:15;80,9
2016-09-28 05:30;78,7
2016-09-28 05:45;83,95
2016-09-28 06:00;88,45
2016-09-28 06:15;87,85
2016-09-28 06:30;88,7
2016-09-28 06:45;90,25
2016-09-28 07:00;102,8
2016-09-28 07:15;97,1
2016-09-28 07:30;97,45
2016-09-28 07:45;142,3
2016-09-28 08:00;115,75
2016-09-28 08:15;108,4
2016-09-28 08:30;109,3
2016-09-28 08:45;159
2016-09-28 09:00;155,3
2016-09-28 09:15;132,3
2016-09-28 09:30;148,5
2016-09-28 09:45;152,35
2016-09-28 10:00;168,65
2016-09-28 10:15;159,1
2016-09-28 10:30;156,2
2016-09-28 10:45;151,75
2016-09-28 11:00;156,6
2016-09-28 11:15;163
2016-09-28 11:30;169,15
2016-09-28 11:45;169,85
2016-09-28 12:00;173,75
2016-09-28 12:15;180,05
2016-09-28 12:30;180,15
2016-09-28 12:45;174,45
2016-09-28 13:00;183,15
2016-09-28 13:15;183,2
2016-09-28 13:30;176,7
2016-09-28 13:45;174,45
2016-09-28 14:00;184,15
2016-09-28 14:15;185,5
2016-09-28 14:30;189,2
2016-09-28 14:45;184,2
2016-09-28 15:00;180,05
2016-09-28 15:15;183,05
2016-09-28 15:30;181,05
2016-09-28 15:45;167,4
2016-09-28 16:00;165,4
2016-09-28 16:15;161
2016-09-28 16:30;154,4
2016-09-28 16:45;142,25
2016-09-28 17:00;140,65
2016-09-28 17:15;132,65
2016-09-28 17:30;133,15
2016-09-28 17:45;125,45
2016-09-28 18:00;128,95
2016-09-28 18:15;119,25
2016-09-28 18:30;117,7
2016-09-28 18:45;123,85
2016-09-28 19:00;118,65
2016-09-28 19:15;112,65
2016-09-28 19:30;117,7
2016-09-28 19:45;119
2016-09-28 20:00;115,2
2016-09-28 20:15;112
2016-09-28 20:30;113,05
2016-09-28 20:45;110,3
2016-09-28 21:00;108,9
2016-09-28 21:15;109,25
2016-09-28 21:30;102,95
2016-09-28 21:45;105,4
2016-09-28 22:00;96,95
2016-09-28 22:15;92,5
2016-09-28 22:30;89,45
2016-09-28 22:45;90,55
2016-09-28 23:00;89,3
2016-09-28 23:15;87,1
2016-09-28 23:30;86,8
2016-09-28 23:45;86,4
2016-09-29 00:00;86,55
2016-09-29 00:15;87,15
2016-09-29 00:30;81,2
2016-09-29 00:45;80,4
2016-09-29 01:00;81,3
2016-09-29 01:15;79,4
2016-09-29 01:30;79,35
2016-09-29 01:45;79,85
2016-09-29 02:00;80,4
2016-09-29 02:15;79,35
2016-09-29 02:30;79
2016-09-29 02:45;77,3
2016-09-29 03:00;78,3
2016-09-29 03:15;77,75
2016-09-29 03:30;78,25
2016-09-29 03:45;78,35
2016-09-29 04:00;79,2
2016-09-29 04:15;83,5
2016-09-29 04:30;84,05
2016-09-29 04:45;84,5
2016-09-29 05:00;85,85
2016-09-29 05:15;79,6
2016-09-29 05:30;78,65
2016-09-29 05:45;82,4
2016-09-29 06:00;89,8
2016-09-29 06:15;87,45
2016-09-29 06:30;85,85
2016-09-29 06:45;85,9
2016-09-29 07:00;85,4
2016-09-29 07:15;98,65
2016-09-29 07:30;94,85
2016-09-29 07:45;136,75
2016-09-29 08:00;105,95
2016-09-29 08:15;113,75
2016-09-29 08:30;114,65
2016-09-29 08:45;156,55
2016-09-29 09:00;158,9
2016-09-29 09:15;140,65
2016-09-29 09:30;146,5
2016-09-29 09:45;148,8
2016-09-29 10:00;148
2016-09-29 10:15;152,5
2016-09-29 10:30;160
2016-09-29 10:45;162,55
2016-09-29 11:00;157,2
2016-09-29 11:15;175,35
2016-09-29 11:30;186,3
2016-09-29 11:45;176,6
2016-09-29 12:00;181,05
2016-09-29 12:15;201,6
2016-09-29 12:30;202,85
2016-09-29 12:45;200,85
2016-09-29 13:00;201,15
2016-09-29 13:15;208,2
2016-09-29 13:30;205,15
2016-09-29 13:45;204,6
2016-09-29 14:00;208,95
2016-09-29 14:15;209,3
2016-09-29 14:30;203,5
2016-09-29 14:45;192,65
2016-09-29 15:00;188,75
2016-09-29 15:15;180,2
2016-09-29 15:30;176,2
2016-09-29 15:45;172,75
2016-09-29 16:00;167,35
2016-09-29 16:15;166
2016-09-29 16:30;161,4
2016-09-29 16:45;152,1
2016-09-29 17:00;145,8
2016-09-29 17:15;139,8
2016-09-29 17:30;135,4
2016-09-29 17:45;135,05
2016-09-29 18:00;135,4
2016-09-29 18:15;132,35
2016-09-29 18:30;124,9
2016-09-29 18:45;126,65
2016-09-29 19:00;123,8
2016-09-29 19:15;124,75
2016-09-29 19:30;125,55
2016-09-29 19:45;120,9
2016-09-29 20:00;126,3
2016-09-29 20:15;121,15
2016-09-29 20:30;122,05
2016-09-29 20:45;124,05
2016-09-29 21:00;116,9
2016-09-29 21:15;114
2016-09-29 21:30;109,5
2016-09-29 21:45;103,8
2016-09-29 22:00;102,9
2016-09-29 22:15;105,6
2016-09-29 22:30;104,2
2016-09-29 22:45;101,8
2016-09-29 23:00;104,1
2016-09-29 23:15;103,35
2016-09-29 23:30;98,15
2016-09-29 23:45;95,4
2016-09-30 00:00;96,5
2016-09-30 00:15;99,05
2016-09-30 00:30;97,15
2016-09-30 00:45;91,25
2016-09-30 01:00;92,65
2016-09-30 01:15;90,15
2016-09-30 01:30;89,65
2016-09-30 01:45;88,7
2016-09-30 02:00;79,75
2016-09-30 02:15;77,55
2016-09-30 02:30;78,15
2016-09-30 02:45;77,3
2016-09-30 03:00;78,65
2016-09-30 03:15;77,6
2016-09-30 03:30;77,55
2016-09-30 03:45;76,35
2016-09-30 04:00;76,55
2016-09-30 04:15;76,85
2016-09-30 04:30;76,95
2016-09-30 04:45;77,15
2016-09-30 05:00;84,45
2016-09-30 05:15;86,35
2016-09-30 05:30;85,55
2016-09-30 05:45;87,15
2016-09-30 06:00;93,9
2016-09-30 06:15;90,3
2016-09-30 06:30;89,3
2016-09-30 06:45;91,6
2016-09-30 07:00;89,55
2016-09-30 07:15;96,05
2016-09-30 07:30;90,15
2016-09-30 07:45;141,45
2016-09-30 08:00;114,7
2016-09-30 08:15;115,15
2016-09-30 08:30;116,9
2016-09-30 08:45;156,4
2016-09-30 09:00;155,3
2016-09-30 09:15;129,95
2016-09-30 09:30;149,3
2016-09-30 09:45;151,15
2016-09-30 10:00;147,65
2016-09-30 10:15;155,45
2016-09-30 10:30;156,25
2016-09-30 10:45;162,4
2016-09-30 11:00;162,4
2016-09-30 11:15;160,85
2016-09-30 11:30;161,6
2016-09-30 11:45;172,55
2016-09-30 12:00;171,4
2016-09-30 12:15;174,35
2016-09-30 12:30;183,8
2016-09-30 12:45;178,55
2016-09-30 13:00;171,6
2016-09-30 13:15;187,1
2016-09-30 13:30;186,55
2016-09-30 13:45;174,3
2016-09-30 14:00;182,95
2016-09-30 14:15;182,8
2016-09-30 14:30;160,7
2016-09-30 14:45;168,9
2016-09-30 15:00;170,3
2016-09-30 15:15;156
2016-09-30 15:30;159,5
2016-09-30 15:45;155,75
2016-09-30 16:00;139,9
2016-09-30 16:15;148,75
2016-09-30 16:30;144,7
2016-09-30 16:45;133,95
2016-09-30 17:00;132,2
2016-09-30 17:15;130,95
2016-09-30 17:30;127,7
2016-09-30 17:45;127,9
2016-09-30 18:00;123,55
2016-09-30 18:15;121,85
2016-09-30 18:30;116,1
2016-09-30 18:45;113,4
2016-09-30 19:00;112,9
2016-09-30 19:15;114,2
2016-09-30 19:30;120,1
2016-09-30 19:45;116,65
2016-09-30 20:00;116,85
2016-09-30 20:15;117,2
2016-09-30 20:30;116,45
2016-09-30 20:45;109,5
2016-09-30 21:00;101,7
2016-09-30 21:15;101,25
2016-09-30 21:30;95,35
2016-09-30 21:45;102,3
2016-09-30 22:00;96,45
2016-09-30 22:15;95,5
2016-09-30 22:30;93,8
2016-09-30 22:45;94,55
2016-09-30 23:00;93,15
2016-09-30 23:15;91
2016-09-30 23:30;91
2016-09-30 23:45;88,6
2016-10-01 00:00;86,3
2016-10-01 00:15;87,15
2016-10-01 00:30;86,15
2016-10-01 00:45;86,75
2016-10-01 01:00;85,8
2016-10-01 01:15;81,45
2016-10-01 01:30;80,4
2016-10-01 01:45;82,85
2016-10-01 02:00;87,45
2016-10-01 02:15;86,2
2016-10-01 02:30;85,5
2016-10-01 02:45;81,1
2016-10-01 03:00;77,5
2016-10-01 03:15;77,7
2016-10-01 03:30;77,8
2016-10-01 03:45;78,75
2016-10-01 04:00;77,55
2016-10-01 04:15;77,75
2016-10-01 04:30;77,6
2016-10-01 04:45;76,65
2016-10-01 05:00;77,25
2016-10-01 05:15;77,2
2016-10-01 05:30;77,35
2016-10-01 05:45;80,1
2016-10-01 06:00;81,8
2016-10-01 06:15;80,95
2016-10-01 06:30;79,5
2016-10-01 06:45;81,25
2016-10-01 07:00;83,7
2016-10-01 07:15;79,4
2016-10-01 07:30;79,3
2016-10-01 07:45;78,8
2016-10-01 08:00;74,95
2016-10-01 08:15;76
2016-10-01 08:30;74,95
2016-10-01 08:45;76,2
2016-10-01 09:00;76,05
2016-10-01 09:15;76,55
2016-10-01 09:30;75,15
2016-10-01 09:45;77,3
2016-10-01 10:00;75,15
2016-10-01 10:15;72,75
2016-10-01 10:30;72,85
2016-10-01 10:45;74,6
2016-10-01 11:00;80,95
2016-10-01 11:15;81,5
2016-10-01 11:30;80,15
2016-10-01 11:45;79,1
2016-10-01 12:00;75,8
2016-10-01 12:15;76,95
2016-10-01 12:30;83,35
2016-10-01 12:45;83,9
2016-10-01 13:00;90,1
2016-10-01 13:15;79,05
2016-10-01 13:30;77,05
2016-10-01 13:45;77,8
2016-10-01 14:00;81,65
2016-10-01 14:15;79,1
2016-10-01 14:30;78,45
2016-10-01 14:45;81,05
2016-10-01 15:00;81,75
2016-10-01 15:15;78,1
2016-10-01 15:30;77,4
2016-10-01 15:45;82,4
2016-10-01 16:00;85,3
2016-10-01 16:15;77,55
2016-10-01 16:30;79,95
2016-10-01 16:45;84,7
2016-10-01 17:00;84,05
2016-10-01 17:15;82,95
2016-10-01 17:30;81,6
2016-10-01 17:45;81,05
2016-10-01 18:00;81,2
2016-10-01 18:15;82,85
2016-10-01 18:30;87,2
2016-10-01 18:45;89,25
2016-10-01 19:00;89,7
2016-10-01 19:15;90,75
2016-10-01 19:30;89,9
2016-10-01 19:45;88,5
2016-10-01 20:00;88,1
2016-10-01 20:15;90,6
2016-10-01 20:30;88,25
2016-10-01 20:45;88,05
2016-10-01 21:00;92,6
2016-10-01 21:15;93,1
2016-10-01 21:30;89,65
2016-10-01 21:45;91,65
2016-10-01 22:00;84,55
2016-10-01 22:15;83,2
2016-10-01 22:30;83,6
2016-10-01 22:45;83,65
2016-10-01 23:00;83,45
2016-10-01 23:15;82,25
2016-10-01 23:30;81,85
2016-10-01 23:45;84,7
2016-10-02 00:00;85,95
2016-10-02 00:15;86,5
2016-10-02 00:30;85,55
2016-10-02 00:45;78,75
2016-10-02 01:00;78,55
2016-10-02 01:15;76,6
2016-10-02 01:30;77
2016-10-02 01:45;76,15
2016-10-02 02:00;77,4
2016-10-02 02:15;76,35
2016-10-02 02:30;76,15
2016-10-02 02:45;76
2016-10-02 03:00;76,15
2016-10-02 03:15;77
2016-10-02 03:30;76,7
2016-10-02 03:45;76,8
2016-10-02 04:00;76,9
2016-10-02 04:15;75,75
2016-10-02 04:30;76,1
2016-10-02 04:45;75,9
2016-10-02 05:00;75,55
2016-10-02 05:15;75,4
2016-10-02 05:30;74,55
2016-10-02 05:45;75,35
2016-10-02 06:00;81,35
2016-10-02 06:15;80,95
2016-10-02 06:30;84,35
2016-10-02 06:45;85,45
2016-10-02 07:00;84,4
2016-10-02 07:15;85,9
2016-10-02 07:30;81,8
2016-10-02 07:45;77,4
2016-10-02 08:00;77,65
2016-10-02 08:15;75,3
2016-10-02 08:30;77,35
2016-10-02 08:45;75,3
2016-10-02 09:00;74,55
2016-10-02 09:15;73,8
2016-10-02 09:30;72,95
2016-10-02 09:45;73,45
2016-10-02 10:00;73,8
2016-10-02 10:15;73,5
2016-10-02 10:30;76,85
2016-10-02 10:45;79,3
2016-10-02 11:00;81,5
2016-10-02 11:15;84
2016-10-02 11:30;85,15
2016-10-02 11:45;92,2
2016-10-02 12:00;79
2016-10-02 12:15;78,7
2016-10-02 12:30;78,6
2016-10-02 12:45;77,3
2016-10-02 13:00;78,85
2016-10-02 13:15;78,35
2016-10-02 13:30;80,3
2016-10-02 13:45;78,75
2016-10-02 14:00;81,9
2016-10-02 14:15;84,15
2016-10-02 14:30;80,45
2016-10-02 14:45;83,35
2016-10-02 15:00;83,2
2016-10-02 15:15;85
2016-10-02 15:30;83,3
2016-10-02 15:45;80,55
2016-10-02 16:00;83,35
2016-10-02 16:15;78,2
2016-10-02 16:30;76,65
2016-10-02 16:45;82,3
2016-10-02 17:00;87,65
2016-10-02 17:15;88,95
2016-10-02 17:30;88,6
2016-10-02 17:45;82,15
2016-10-02 18:00;82,15
2016-10-02 18:15;80,25
2016-10-02 18:30;82,3
2016-10-02 18:45;81,2
2016-10-02 19:00;85,75
2016-10-02 19:15;86,25
2016-10-02 19:30;92,85
2016-10-02 19:45;92,35
2016-10-02 20:00;94,55
2016-10-02 20:15;90,9
2016-10-02 20:30;96,05
2016-10-02 20:45;93,7
2016-10-02 21:00;96,85
2016-10-02 21:15;96,95
2016-10-02 21:30;92,2
2016-10-02 21:45;90,3
2016-10-02 22:00;84,9
2016-10-02 22:15;87,25
2016-10-02 22:30;87,6
2016-10-02 22:45;84,3
2016-10-02 23:00;83,85
2016-10-02 23:15;84,7
2016-10-02 23:30;83,6
2016-10-02 23:45;82,15

